User: anonymous   Login
Location: Unspecified
(0.0000°N, 0.0000°E)
Time: 11:40:41
(UTC+00:00)
Language:

USA 179 - Orbit

View from above orbital plane
View from above orbital plane
View from above satellite
View from above satellite

Ground track
Ground track

The orbit data is extracted from the following two-line orbital elements,

1 28384U 04034A   18295.57116306 0.00000000  00000-0  00000-0 0    03
2 28384  63.3301 240.5359 7152309 272.6950  14.8076  2.00620000    05
Epoch (UTC): 22 October 2018 13:42:28
Eccentricity: 0.7152309
inclination: 63.3301°
perigee height: 1184 km
apogee height: 39170 km
right ascension of ascending node: 240.5359°
argument of perigee: 272.6950°
revolutions per day: 2.00620000
mean anomaly at epoch: 14.8076°
orbit number at epoch: 0

The dashed part of the orbit path shows where the satellite is in the earth's shadow,  

DLR